[[{"header":{"parameterUnit":"m.s-1","parameterCategory":1,"la1":30.2991,"la2":30.254,"lo1":-89.0895,"lo2":-89.0444,"dy":0.0017,"dx":0.0017,"nx":28,"ny":28,"refTime":"2023-10-09T21:00:00:Z","depth":0,"parameterNumber":2,"parameterNumberName":"U-component_of_WINDS"},"data":[0,0,0,0,0,0,0,0,0,0,0,0,0,0,0,0,0,0,0,0,0,0,0,0,0,0,0,0,0,0,0,0,0,0,0,0,0,0,0,0,0,0,0,0,0,0,0,0,0,0,0,0,0,0,0,0,0,0,-0.3571,-0.3571,0,-0.3575,-0.3575,-0.3575,-0.3543,-0.3542,-0.3541,-0.354,-0.3547,-0.3548,-0.3549,0,0,0,0,0,0,0,0,0,0,0,0,0,-0.354,-0.3541,-0.3571,-0.3571,-0.3571,-0.3575,-0.3575,-0.3575,-0.3543,-0.3542,-0.3541,-0.354,-0.3546,-0.3548,-0.3549,0,0,0,0,0,0,0,0,0,0,0,0,0,-0.355,-0.3541,-0.3571,-0.3556,-0.3554,-0.3575,-0.3575,-0.3575,-0.3543,-0.3542,-0.3541,-0.3539,-0.3546,-0.3547,-0.3549,-0.3585,0,0,-0.3553,-0.3554,0,0,0,0,0,0,0,0,-0.3549,-0.3551,-0.3558,-0.3557,-0.3555,-0.3557,-0.3566,-0.3578,-0.3544,-0.3548,-0.354,-0.3539,-0.3551,-0.3552,-0.3556,-0.3585,-0.3585,-0.3554,-0.3555,-0.3555,-0.3556,0,0,0,0,0,0,0,-0.3549,-0.3551,-0.3573,-0.3558,-0.3557,-0.355,-0.355,-0.3568,-0.3557,-0.3547,-0.3545,-0.3546,-0.355,-0.3555,-0.3556,-0.3585,-0.3554,-0.3555,-0.3556,-0.3556,-0.3646,-0.3647,0,0,0,0,0,0,-0.355,-0.355,-0.3572,-0.3573,-0.3549,-0.3551,-0.3551,-0.3558,-0.3557,-0.3555,-0.3547,-0.3544,-0.3553,-0.3554,-0.3556,-0.3599,-0.3555,-0.3557,-0.3557,-0.3644,-0.3646,-0.3648,0,0,0,0,0,0,-0.3549,-0.3552,-0.3572,-0.3561,-0.3563,-0.3553,-0.3561,-0.3559,-0.3563,-0.3556,-0.3554,-0.3553,-0.3552,-0.3554,-0.3578,-0.3599,-0.3557,-0.3559,-0.3643,-0.3645,-0.3647,-0.3685,0,0,0,0,0,0,-0.3548,-0.3552,-0.3565,-0.3561,-0.3564,-0.3594,-0.3562,-0.356,-0.3565,-0.3562,-0.3562,-0.356,-0.3551,-0.3576,-0.358,-0.36,-0.356,-0.3641,-0.3644,-0.3646,-0.3682,-0.3689,-0.3694,0,0,0,0,0,-0.3547,-0.3576,-0.3566,-0.3568,-0.3579,-0.3595,-0.3596,-0.3584,-0.3567,-0.358,-0.3576,-0.356,-0.3596,-0.3579,-0.3582,-0.3604,-0.3639,-0.3643,-0.3646,-0.368,-0.3687,-0.3694,0,0,0,0,0,0,-0.3583,-0.3575,-0.3564,-0.3591,-0.3594,-0.3589,-0.3606,-0.3592,-0.36,-0.3597,-0.3582,-0.3582,-0.3609,-0.3609,-0.359,-0.3639,-0.3615,-0.3619,-0.3639,-0.3646,-0.3652,-0.3652,-0.3561,0,0,0,0,0,-0.3594,-0.3606,-0.3599,-0.3624,-0.3626,-0.3616,-0.3622,-0.3612,-0.3614,-0.3616,-0.3613,-0.3617,-0.3629,-0.3637,-0.3648,-0.3681,-0.3682,-0.3698,-0.3704,-0.3709,-0.3713,-0.3733,-0.374,-0.3659,-0.3659,-0.3659,0,0,-0.3617,-0.3614,-0.3623,-0.3631,-0.3632,-0.3646,-0.3617,-0.3633,-0.3644,-0.3618,-0.3641,-0.364,-0.3643,-0.3672,-0.3685,-0.3673,-0.3736,-0.3713,-0.3717,-0.3719,-0.3737,-0.3745,-0.3752,-0.3661,-0.3661,-0.366,0,0,-0.3666,-0.3664,-0.3686,-0.3687,-0.3688,-0.3681,-0.3687,-0.3684,-0.3682,-0.3704,-0.3686,-0.3699,-0.372,-0.3723,-0.3728,-0.3779,-0.3765,-0.3783,-0.3814,-0.3833,-0.384,-0.3846,-0.3865,-0.3873,-0.3787,-0.3787,-0.3787,0,-0.3695,-0.3714,-0.3699,-0.3716,-0.3721,-0.3698,-0.3721,-0.3723,-0.3728,-0.3733,-0.3718,-0.3744,-0.3745,-0.3775,-0.3788,-0.3792,-0.3798,-0.3783,-0.384,-0.3845,-0.3851,-0.387,-0.3877,-0.3789,-0.3789,-0.3789,-0.3788,0,-0.3751,-0.3765,-0.3782,-0.3787,-0.3794,-0.3814,-0.3802,-0.3811,-0.3801,-0.3796,-0.382,-0.3819,-0.383,-0.3836,-0.3827,-0.3866,-0.3859,-0.3842,-0.3818,-0.3861,-0.3879,-0.3885,-0.3792,-0.3792,-0.3791,-0.379,0,0,-0.3823,-0.3819,-0.3826,-0.3828,-0.3828,-0.3839,-0.3859,-0.3868,-0.3877,-0.3881,-0.3898,-0.3916,-0.3901,-0.3907,-0.3897,-0.3913,-0.3956,-0.3895,-0.3895,-0.3908,-0.4001,-0.4015,-0.4024,-0.3946,-0.3947,-0.3948,-0.4002,0,-0.3873,-0.3905,-0.3892,-0.3926,-0.3939,-0.3917,-0.3934,-0.3937,-0.3933,-0.3945,-0.394,-0.3954,-0.3932,-0.3936,-0.3951,-0.3948,-0.3975,-0.3943,-0.3964,-0.3965,-0.3965,-0.4032,-0.4046,-0.4097,-0.4008,-0.4009,-0.401,0,-0.3935,-0.3941,-0.3976,-0.3974,-0.398,-0.3995,-0.4004,-0.4014,-0.4017,-0.4013,-0.4019,-0.4006,-0.4026,-0.4,-0.4029,-0.4008,-0.4015,-0.4015,-0.4017,-0.402,-0.3991,-0.4039,-0.4112,-0.4121,-0.4021,-0.402,-0.4019,0,-0.3987,-0.4004,-0.4027,-0.403,-0.4028,-0.4039,-0.4039,-0.404,-0.4047,-0.4055,-0.406,-0.407,-0.4076,-0.4084,-0.4075,-0.4057,-0.4106,-0.4079,-0.4105,-0.4105,-0.4117,-0.4117,-0.4195,-0.4119,-0.4119,-0.4119,-0.4119,0,-0.4045,-0.4067,-0.4051,-0.4066,-0.4091,-0.4076,-0.4101,-0.4099,-0.41,-0.4115,-0.4096,-0.4111,-0.4097,-0.4111,-0.4103,-0.4129,-0.4132,-0.413,-0.4128,-0.4133,-0.4133,-0.4139,-0.4136,-0.4121,-0.412,-0.412,-0.412,0,-0.4107,-0.4097,-0.4121,-0.4117,-0.4117,-0.4136,-0.4133,-0.4147,-0.4141,-0.416,-0.4164,-0.4155,-0.417,-0.4161,-0.4177,-0.4172,-0.4206,-0.4199,-0.4206,-0.4204,-0.4231,-0.423,-0.4317,-0.4329,-0.4244,-0.4244,-0.4245,0,-0.4146,-0.4163,-0.416,-0.4168,-0.4169,-0.4182,-0.4189,-0.4175,-0.4183,-0.4188,-0.4202,-0.4215,-0.4225,-0.4251,-0.4247,-0.4259,-0.4253,-0.4283,-0.4255,-0.4259,-0.4256,-0.4256,-0.4258,-0.4289,-0.429,-0.4291,-0.4291,0,-0.4216,-0.421,-0.422,-0.4229,-0.4237,-0.4243,-0.4248,-0.4256,-0.4242,-0.4252,-0.4267,-0.4275,-0.4291,-0.4305,-0.4315,-0.4316,-0.4303,-0.43,-0.4307,-0.4313,-0.4317,-0.4317,-0.4223,-0.4298,-0.4298,-0.4297,-0.4297,-0.4297,-0.4269,-0.4284,-0.4284,-0.4296,-0.4298,-0.4303,-0.4317,-0.4312,-0.4324,-0.4335,-0.4326,-0.4344,-0.4347,-0.436,-0.4363,-0.4378,-0.4366,-0.4376,-0.4378,-0.4382,-0.4386,-0.4313,-0.4379,-0.4379,-0.4379,-0.4379,-0.4379,0,-0.434,-0.4339,-0.435,-0.4357,-0.4367,-0.4351,-0.4356,-0.4366,-0.4382,-0.4385,-0.4395,-0.4413,-0.4427,-0.4424,-0.4436,-0.4449,-0.4443,-0.4453,-0.4453,-0.4454,-0.4395,-0.4389,-0.4458,-0.4458,-0.4458,-0.4458,-0.4458,-0.4458,-0.4378,-0.4402,-0.4396,-0.4421,-0.442,-0.4437,-0.4442,-0.4447,-0.445,-0.447,-0.4481,-0.4478,-0.448,-0.4492,-0.4505,-0.4504,-0.451,-0.4523,-0.452,-0.4465,-0.4458,-0.445,-0.4444,-0.4524,-0.4524,-0.4578,-0.4578,-0.4578]},{"header":{"parameterUnit":"m.s-1","parameterCategory":1,"la1":30.2991,"la2":30.254,"lo1":-89.0895,"lo2":-89.0444,"dy":0.0017,"dx":0.0017,"nx":28,"ny":28,"refTime":"2023-10-09T21:00:00:Z","depth":0,"parameterNumber":3,"parameterNumberName":"V-component_of_WINDS"},"data":[0,0,0,0,0,0,0,0,0,0,0,0,0,0,0,0,0,0,0,0,0,0,0,0,0,0,0,0,0,0,0,0,0,0,0,0,0,0,0,0,0,0,0,0,0,0,0,0,0,0,0,0,0,0,0,0,0,0,2.0416,2.0417,0,2.047,2.0471,2.0471,2.0467,2.0466,2.0465,2.0464,2.0517,2.0519,2.0521,0,0,0,0,0,0,0,0,0,0,0,0,0,2.0305,2.0307,2.0416,2.0417,2.0417,2.047,2.0471,2.0471,2.0467,2.0466,2.0465,2.0464,2.0516,2.0518,2.0521,0,0,0,0,0,0,0,0,0,0,0,0,0,2.0356,2.0308,2.0416,2.0422,2.0423,2.047,2.0471,2.0472,2.0467,2.0466,2.0465,2.0464,2.0515,2.0518,2.0521,2.0566,0,0,2.0531,2.0533,0,0,0,0,0,0,0,0,2.0353,2.036,2.042,2.0421,2.0423,2.0461,2.0451,2.0503,2.0467,2.045,2.0464,2.0463,2.0499,2.0503,2.0516,2.0568,2.057,2.0532,2.0534,2.0535,2.0536,0,0,0,0,0,0,0,2.0349,2.0357,2.0437,2.0421,2.0422,2.042,2.0426,2.0461,2.048,2.0452,2.0451,2.0458,2.0499,2.0513,2.0517,2.0571,2.0531,2.0534,2.0536,2.0538,2.066,2.0661,0,0,0,0,0,0,2.0345,2.0355,2.0436,2.0439,2.0384,2.0423,2.043,2.045,2.048,2.0484,2.0459,2.0458,2.0508,2.0513,2.0519,2.0571,2.0535,2.0538,2.054,2.0659,2.0661,2.0662,0,0,0,0,0,0,2.0343,2.0352,2.0433,2.0397,2.0407,2.0426,2.0449,2.0451,2.0465,2.0486,2.0489,2.047,2.0507,2.0514,2.0554,2.0573,2.0539,2.0542,2.0657,2.0659,2.0661,2.0677,0,0,0,0,0,0,2.034,2.0352,2.0369,2.0397,2.0409,2.0469,2.045,2.0453,2.0471,2.047,2.0497,2.05,2.0507,2.0549,2.0557,2.0577,2.0545,2.0656,2.0658,2.0661,2.0675,2.068,2.0683,0,0,0,0,0,2.0336,2.0372,2.037,2.038,2.0432,2.047,2.0476,2.0485,2.0473,2.049,2.0503,2.0499,2.057,2.0553,2.0562,2.0583,2.0654,2.0658,2.066,2.0673,2.0679,2.0683,0,0,0,0,0,0,2.0345,2.0375,2.0374,2.0421,2.0443,2.0469,2.0491,2.049,2.0516,2.0513,2.0521,2.0527,2.0567,2.0579,2.056,2.0627,2.061,2.0615,2.0617,2.0623,2.0627,2.0622,2.0547,0,0,0,0,0,2.0352,2.0382,2.0406,2.0445,2.0456,2.0472,2.0489,2.0493,2.0516,2.0525,2.0541,2.0562,2.0589,2.0607,2.0633,2.0677,2.0682,2.0696,2.07,2.0704,2.0707,2.073,2.0736,2.0672,2.0672,2.0672,0,0,2.0368,2.0388,2.0406,2.0447,2.0465,2.0493,2.048,2.0511,2.0532,2.0529,2.0567,2.058,2.0604,2.0646,2.0665,2.0657,2.0726,2.0707,2.071,2.0712,2.0733,2.074,2.0745,2.0674,2.0673,2.0673,0,0,2.0411,2.043,2.0463,2.0481,2.0508,2.0518,2.0526,2.0553,2.0561,2.06,2.0598,2.0622,2.0669,2.0686,2.0701,2.0749,2.0745,2.0757,2.0778,2.08,2.0805,2.081,2.0826,2.0831,2.0761,2.0761,2.0761,0,2.0426,2.0471,2.048,2.0512,2.0529,2.0529,2.0561,2.0578,2.0612,2.0623,2.0614,2.0672,2.0689,2.0734,2.0745,2.0758,2.0766,2.0754,2.0804,2.0809,2.0813,2.0828,2.0834,2.0762,2.0762,2.0762,2.0762,0,2.0488,2.0518,2.0542,2.0575,2.0595,2.0627,2.064,2.0659,2.0661,2.0672,2.071,2.073,2.0759,2.0771,2.0773,2.0815,2.081,2.0803,2.0786,2.082,2.0834,2.084,2.0764,2.0764,2.0763,2.0763,0,0,2.0538,2.0575,2.0584,2.0598,2.0628,2.0651,2.0682,2.0712,2.0727,2.075,2.0775,2.0815,2.0808,2.0825,2.0829,2.0849,2.0883,2.0839,2.084,2.0845,2.0929,2.0933,2.094,2.0882,2.0883,2.0884,2.0926,0,2.0582,2.0639,2.0647,2.0696,2.0724,2.0724,2.0751,2.0771,2.0781,2.0805,2.0816,2.0844,2.0834,2.0844,2.0863,2.0875,2.09,2.0872,2.0904,2.0905,2.0896,2.0947,2.0952,2.0991,2.0932,2.0933,2.0934,0,2.0642,2.0667,2.0719,2.0743,2.0755,2.0779,2.0806,2.083,2.0852,2.0858,2.0877,2.0878,2.0909,2.0892,2.0934,2.0915,2.0928,2.0936,2.0938,2.094,2.092,2.0949,2.1004,2.1009,2.0943,2.0942,2.0942,0,2.0671,2.0718,2.0754,2.0767,2.0797,2.0814,2.0827,2.0848,2.0865,2.0888,2.0899,2.0925,2.0939,2.0959,2.0967,2.0955,2.1008,2.0992,2.1012,2.1012,2.1022,2.1021,2.1079,2.1034,2.1033,2.1033,2.1033,0,2.0719,2.075,2.0768,2.079,2.0824,2.0834,2.0867,2.088,2.0898,2.0922,2.0924,2.0946,2.0956,2.0979,2.0986,2.1019,2.1025,2.103,2.1031,2.1029,2.1028,2.1037,2.1034,2.1035,2.1035,2.1034,2.1034,0,2.0757,2.077,2.081,2.0835,2.0842,2.0866,2.0887,2.0908,2.0918,2.0948,2.0955,2.0971,2.0999,2.1009,2.1043,2.1047,2.1084,2.1084,2.1077,2.1077,2.1096,2.1093,2.1159,2.1168,2.1118,2.1119,2.1119,0,2.0786,2.081,2.0838,2.0854,2.0868,2.0894,2.0911,2.0921,2.0939,2.0965,2.0983,2.101,2.1032,2.1076,2.1089,2.1114,2.1114,2.1135,2.1117,2.1114,2.1112,2.111,2.1112,2.1138,2.1138,2.1139,2.1139,0,2.0836,2.0841,2.0866,2.0893,2.0913,2.0935,2.0956,2.0969,2.0982,2.1001,2.1029,2.1047,2.1081,2.1107,2.1133,2.1145,2.1144,2.1145,2.1151,2.1148,2.1142,2.1144,2.1084,2.1143,2.1143,2.1142,2.1142,2.1142,2.0869,2.089,2.0912,2.094,2.0957,2.0976,2.0997,2.101,2.1034,2.1062,2.1066,2.1096,2.1116,2.1151,2.1164,2.1187,2.1181,2.1189,2.1191,2.1193,2.1193,2.114,2.1191,2.1191,2.1191,2.1191,2.1191,0,2.0918,2.0932,2.0957,2.0987,2.1008,2.1006,2.1029,2.1046,2.1072,2.1092,2.1114,2.1145,2.1171,2.1187,2.1212,2.1227,2.1227,2.1233,2.1231,2.1234,2.1198,2.119,2.1233,2.1233,2.1233,2.1233,2.1233,2.1233,2.0945,2.098,2.0987,2.103,2.1044,2.1073,2.1086,2.1103,2.1119,2.1154,2.1176,2.1186,2.1204,2.123,2.1253,2.1257,2.1265,2.1272,2.1275,2.1241,2.1237,2.1232,2.1225,2.1274,2.1274,2.1309,2.1309,2.1309]}]]